H1 CPF 2 NER 2024 10 17 9 291 01 glonass106 H2 0705201 9106 32275 2024 10 17 0 0 0 2024 10 20 23 45 0 900 1 1 0 0 0 1 H9 10 0 60600 0.00000 0 -17297405.300 18554881.461 -2606646.663 10 0 60600 900.00000 0 -16806410.061 18280218.556 -5798606.490 10 0 60600 1800.00000 0 -16119903.325 17650877.969 -8877808.561 10 0 60600 2700.00000 0 -15295724.910 16654500.472 -11784371.872 10 0 60600 3600.00000 0 -14394558.498 15292094.771 -14461776.762 10 0 60600 4500.00000 0 -13477240.080 13578216.511 -16857968.332 10 0 60600 5400.00000 0 -12602077.120 11540587.500 -18926371.421 10 0 60600 6300.00000 0 -11822292.123 9219170.313 -20626797.170 10 0 60600 7200.00000 0 -11183698.852 6664736.413 -21926223.536 10 0 60600 8100.00000 0 -10722709.267 3936987.118 -22799434.855 10 0 60600 9000.00000 0 -10464755.084 1102305.401 -23229508.426 10 0 60600 9900.00000 0 -10423190.159 -1768768.228 -23208139.157 10 0 60600 10800.00000 0 -10598719.513 -4604231.118 -22735796.500 10 0 60600 11700.00000 0 -10979378.565 -7333373.655 -21821711.073 10 0 60600 12600.00000 0 -11541063.039 -9889480.264 -20483691.575 10 0 60600 13500.00000 0 -12248586.867 -12212364.750 -18747775.734 10 0 60600 14400.00000 0 -13057223.254 -14250635.439 -16647722.131 10 0 60600 15300.00000 0 -13914663.854 -15963596.796 -14224352.717 10 0 60600 16200.00000 0 -14763313.365 -17322709.413 -11524758.646 10 0 60600 17100.00000 0 -15542822.807 -18312548.622 -8601384.732 10 0 60600 18000.00000 0 -16192754.549 -18931222.849 -5511010.211 10 0 60600 18900.00000 0 -16655266.612 -19190235.490 -2313645.593 10 0 60600 19800.00000 0 -16877702.864 -19113797.276 928632.915 10 0 60600 20700.00000 0 -16814979.583 -18737619.145 4152888.601 10 0 60600 21600.00000 0 -16431667.482 -18107237.416 7296545.467 10 0 60600 22500.00000 0 -15703681.019 -17275942.576 10298601.609 10 0 60600 23400.00000 0 -14619503.388 -16302399.558 13100811.032 10 0 60600 24300.00000 0 -13180895.082 -15248060.145 15648811.012 10 0 60600 25200.00000 0 -11403055.568 -14174476.668 17893173.280 10 0 60600 26100.00000 0 -9314230.487 -13140630.023 19790358.939 10 0 60600 27000.00000 0 -6954779.882 -12200384.220 21303559.067 10 0 60600 27900.00000 0 -4375745.289 -11400174.091 22403405.265 10 0 60600 28800.00000 0 -1636974.322 -10777022.911 23068536.901 10 0 60600 29700.00000 0 1195120.450 -10356972.744 23286014.567 10 0 60600 30600.00000 0 4050076.434 -10153993.062 23051572.068 10 0 60600 31500.00000 0 6856066.517 -10169413.275 22369702.147 10 0 60600 32400.00000 0 9542644.845 -10391902.959 21253574.148 10 0 60600 33300.00000 0 12043439.962 -10798000.829 19724784.790 10 0 60600 34200.00000 0 14298684.294 -11353170.571 17812946.246 10 0 60600 35100.00000 0 16257475.529 -12013339.607 15555118.722 10 0 60600 36000.00000 0 17879676.300 -12726856.504 12995097.689 10 0 60600 36900.00000 0 19137373.250 -13436784.966 10182568.827 10 0 60600 37800.00000 0 20015834.824 -14083437.879 7172146.452 10 0 60600 38700.00000 0 20513927.864 -14607044.438 4022313.687 10 0 60600 39600.00000 0 20643975.762 -14950437.359 794284.923 10 0 60600 40500.00000 0 20431064.400 -15061645.996 -2449187.143 10 0 60600 41400.00000 0 19911825.495 -14896284.871 -5645036.240 10 0 60600 42300.00000 0 19132749.102 -14419635.554 -8731114.492 10 0 60600 43200.00000 0 18148097.077 -13608332.720 -11647406.893 10 0 60600 44100.00000 0 17017506.226 -12451581.954 -14337203.927 10 0 60600 45000.00000 0 15803382.984 -10951856.714 -16748208.776 10 0 60600 45900.00000 0 14568200.199 -9125043.984 -18833557.131 10 0 60600 46800.00000 0 13371810.508 -7000031.449 -20552729.542 10 0 60600 47700.00000 0 12268889.870 -4617752.667 -21872338.495 10 0 60600 48600.00000 0 11306618.987 -2029729.450 -22766775.206 10 0 60600 49500.00000 0 10522700.016 703828.287 -23218703.938 10 0 60600 50400.00000 0 9943791.601 3516286.501 -23219394.721 10 0 60600 51300.00000 0 9584427.420 6337121.041 -22768888.551 10 0 60600 52200.00000 0 9446462.983 9094616.851 -21875992.302 10 0 60600 53100.00000 0 9519073.165 11718620.659 -20558103.799 10 0 60600 54000.00000 0 9779299.807 14143233.334 -18840870.666 10 0 60600 54900.00000 0 10193125.653 16309330.705 -16757689.618 10 0 60600 55800.00000 0 10717028.808 18166808.656 -14349055.894 10 0 60600 56700.00000 0 11299951.744 19676459.887 -11661775.357 10 0 60600 57600.00000 0 11885601.471 20811404.992 -8748054.406 10 0 60600 58500.00000 0 12414983.499 21558019.049 -5664485.337 10 0 60600 59400.00000 0 12829062.395 21916316.008 -2470946.811 10 0 60600 60300.00000 0 13071436.324 21899775.821 770559.136 10 0 60600 61200.00000 0 13090912.363 21534622.556 3997110.816 10 0 60600 62100.00000 0 12843873.523 20858584.762 7146087.772 10 0 60600 63000.00000 0 12296337.226 19919190.989 10156384.983 10 0 60600 63900.00000 0 11425617.935 18771672.789 12969596.671 10 0 60600 64800.00000 0 10221523.353 17476563.840 15531146.764 10 0 60600 65700.00000 0 8687033.159 16097096.349 17791344.247 10 0 60600 66600.00000 0 6838430.948 14696504.188 19706343.208 10 0 60600 67500.00000 0 4704882.861 13335345.796 21238989.416 10 0 60600 68400.00000 0 2327479.402 12068958.832 22359537.571 10 0 60600 69300.00000 0 -242220.803 10945152.825 23046225.846 10 0 60600 70200.00000 0 -2944085.945 10002235.933 23285697.069 10 0 60600 71100.00000 0 -5711667.187 9267457.933 23073258.735 10 0 60600 72000.00000 0 -8474723.588 8755934.182 22412976.910 10 0 60600 72900.00000 0 -11161912.177 8470095.227 21317602.073 10 0 60600 73800.00000 0 -13703532.599 8399684.949 19808327.937 10 0 60600 74700.00000 0 -16034213.187 8522307.245 17914387.303 10 0 60600 75600.00000 0 -18095427.518 8804498.355 15672492.008 10 0 60600 76500.00000 0 -19837737.178 9203279.893 13126126.974 10 0 60600 77400.00000 0 -21222667.492 9668127.324 10324711.283 10 0 60600 78300.00000 0 -22224137.988 10143270.964 7322641.931 10 0 60600 79200.00000 0 -22829387.792 10570232.268 4178238.379 10 0 60600 80100.00000 0 -23039357.112 10890487.915 952608.347 10 0 60600 81000.00000 0 -22868508.823 11048148.459 -2291542.942 10 0 60600 81900.00000 0 -22344097.816 10992537.428 -5491136.478 10 0 60600 82800.00000 0 -21504919.080 10680560.698 -8583951.637 10 0 60600 83700.00000 0 -20399587.694 10078764.782 -11509842.082 10 0 60600 84600.00000 0 -19084423.731 9164995.759 -14211910.970 10 0 60600 85500.00000 0 -17621031.797 7929587.548 -16637621.898 10 0 60601 0.00000 0 -16073677.924 6376028.349 -18739823.305 10 0 60601 900.00000 0 -14506573.900 4521075.188 -20477667.249 10 0 60601 1800.00000 0 -12981185.744 2394312.866 -21817401.884 10 0 60601 2700.00000 0 -11553676.814 37172.155 -22733026.238 10 0 60601 3600.00000 0 -10272594.863 -2498550.490 -23206792.051 10 0 60601 4500.00000 0 -9176898.922 -5152611.308 -23229544.587 10 0 60601 5400.00000 0 -8294408.256 -7858596.212 -22800896.110 10 0 60601 6300.00000 0 -7640737.605 -10546462.114 -21929229.122 10 0 60601 7200.00000 0 -7218762.380 -13145237.343 -20631529.632 10 0 60601 8100.00000 0 -7018635.195 -15585769.379 -18933053.929 10 0 60601 9000.00000 0 -7018351.974 -17803406.158 -16866835.392 10 0 60601 9900.00000 0 -7184842.829 -19740499.913 -14473040.900 10 0 60601 10800.00000 0 -7475540.927 -21348629.873 -11798189.228 10 0 60601 11700.00000 0 -7840362.476 -22590451.850 -8894246.478 10 0 60601 12600.00000 0 -8224013.705 -23441098.135 -5817616.054 10 0 60601 13500.00000 0 -8568526.931 -23889070.017 -2628042.782 10 0 60601 14400.00000 0 -8815918.179 -23936586.290 612547.531 10 0 60601 15300.00000 0 -8910853.672 -23599373.981 3841250.338 10 0 60601 16200.00000 0 -8803212.151 -22905910.825 6995402.927 10 0 60601 17100.00000 0 -8450434.407 -21896151.995 10013799.458 10 0 60601 18000.00000 0 -7819560.416 -20619795.149 12837876.731 10 0 60601 18900.00000 0 -6888867.633 -19134157.063 15412847.710 10 0 60601 19800.00000 0 -5649040.834 -17501751.263 17688760.971 10 0 60601 20700.00000 0 -4103823.531 -15787668.283 19621465.784 10 0 60601 21600.00000 0 -2270122.695 -14056868.253 21173464.606 10 0 60601 22500.00000 0 -177561.279 -12371498.798 22314636.971 10 0 60601 23400.00000 0 2132503.965 -10788350.026 23022821.274 10 0 60601 24300.00000 0 4608459.769 -9356552.392 23284243.674 10 0 60601 25200.00000 0 7190348.599 -8115612.958 23093786.128 10 0 60601 26100.00000 0 9812137.702 -7093871.493 22455088.492 10 0 60601 27000.00000 0 12404251.928 -6307440.303 21380482.561 10 0 60601 27900.00000 0 14896266.275 -5759671.616 19890758.953 10 0 60601 28800.00000 0 17219647.154 -5441174.436 18014770.747 10 0 60601 29700.00000 0 19310429.098 -5330379.874 15788880.768 10 0 60601 30600.00000 0 21111715.937 -5394631.038 13256262.434 10 0 60601 31500.00000 0 22575902.312 -5591751.496 10466066.920 10 0 60601 32400.00000 0 23666522.784 -5872026.107 7472472.196 10 0 60601 33300.00000 0 24359651.013 -6180510.397 4333631.945 10 0 60601 34200.00000 0 24644790.137 -6459570.546 1110544.712 10 0 60601 35100.00000 0 24525216.762 -6651546.009 -2134134.599 10 0 60601 36000.00000 0 24017763.935 -6701421.333 -5337317.333 10 0 60601 36900.00000 0 23152052.227 -6559393.103 -8436713.350 10 0 60601 37800.00000 0 21969201.398 -6183222.289 -11372048.229 10 0 60601 38700.00000 0 20520077.158 -5540271.269 -14086240.973 10 0 60601 39600.00000 0 18863147.246 -4609138.175 -16526518.598 10 0 60601 40500.00000 0 17062037.459 -3380818.386 -18645445.428 10 0 60601 41400.00000 0 15182890.828 -1859343.011 -20401846.810 10 0 60601 42300.00000 0 13291641.221 -61866.445 -21761609.222 10 0 60601 43200.00000 0 11451315.927 1981801.646 -22698341.432 10 0 60601 44100.00000 0 9719480.237 4230201.200 -23193884.236 10 0 60601 45000.00000 0 8145930.746 6631722.165 -23238659.321 10 0 60601 45900.00000 0 6770733.316 9126538.483 -22831851.000 10 0 60601 46800.00000 0 5622686.935 11648895.585 -21981417.748 10 0 60601 47700.00000 0 4718276.725 14129656.583 -20703933.667 10 0 60601 48600.00000 0 4061158.677 16499001.609 -19024263.182 10 0 60601 49500.00000 0 3642196.422 18689168.380 -16975075.381 10 0 60601 50400.00000 0 3440047.185 20637120.211 -14596207.388 10 0 60601 51300.00000 0 3422271.071 22287030.744 -11933889.081 10 0 60601 52200.00000 0 3546915.878 23592482.165 -9039844.053 10 0 60601 53100.00000 0 3764509.711 24518285.566 -5970284.229 10 0 60601 54000.00000 0 4020376.517 25041847.845 -2784817.659 10 0 60601 54900.00000 0 4257176.100 25154028.468 454709.268 10 0 60601 55800.00000 0 4417560.749 24859450.717 3685412.535 10 0 60601 56700.00000 0 4446835.747 24176254.961 6844590.644 10 0 60601 57600.00000 0 4295510.891 23135304.767 9870940.387 10 0 60601 58500.00000 0 3921634.848 21778879.631 12705744.488 10 0 60601 59400.00000 0 3292813.380 20158909.469 15294008.099 10 0 60601 60300.00000 0 2387825.814 18334825.077 17585522.274 10 0 60601 61200.00000 0 1197771.075 16371114.622 19535834.056 10 0 60601 62100.00000 0 -273305.692 14334688.263 21107104.822 10 0 60601 63000.00000 0 -2008333.174 12292160.722 22268840.774 10 0 60601 63900.00000 0 -3977685.103 10307164.817 22998481.935 10 0 60601 64800.00000 0 -6140184.226 8437807.433 23281838.729 10 0 60601 65700.00000 0 -8444598.535 6734373.284 23113368.007 10 0 60601 66600.00000 0 -10831568.802 5237371.489 22496283.312 10 0 60601 67500.00000 0 -13235888.548 3976005.667 21442497.104 10 0 60601 68400.00000 0 -15589042.797 2967130.649 19972395.715 10 0 60601 69300.00000 0 -17821901.000 2214738.832 18114450.776 10 0 60601 70200.00000 0 -19867452.789 1709997.060 15904673.915 10 0 60601 71100.00000 0 -21663473.052 1431832.075 13385924.454 10 0 60601 72000.00000 0 -23155005.345 1348039.558 10607082.765 10 0 60601 72900.00000 0 -24296559.777 1416869.750 7622104.688 10 0 60601 73800.00000 0 -25053933.183 1589022.439 4488974.917 10 0 60601 74700.00000 0 -25405574.805 1809966.622 1268579.587 10 0 60601 75600.00000 0 -25343439.746 2022486.208 -1976479.911 10 0 60601 76500.00000 0 -24873293.863 2169343.287 -5183108.383 10 0 60601 77400.00000 0 -24014456.947 2195945.348 -8288949.169 10 0 60601 78300.00000 0 -22798994.793 2052902.450 -11233602.607 10 0 60601 79200.00000 0 -21270394.117 1698365.015 -13959806.211 10 0 60601 80100.00000 0 -19481776.228 1100042.175 -16414552.833 10 0 60601 81000.00000 0 -17493724.753 236814.253 -18550124.594 10 0 60601 81900.00000 0 -15371818.965 -900129.798 -20325022.191 10 0 60601 82800.00000 0 -13183976.465 -2306678.911 -21704771.423 10 0 60601 83700.00000 0 -10997716.704 -3965737.172 -22662591.475 10 0 60601 84600.00000 0 -8877459.855 -5847715.281 -23179912.334 10 0 60601 85500.00000 0 -6881973.728 -7911556.397 -23246731.727 10 0 60602 0.00000 0 -5062075.008 -10106253.905 -22861805.220 10 0 60602 900.00000 0 -3458679.095 -12372799.496 -22032665.936 10 0 60602 1800.00000 0 -2101281.342 -14646477.788 -20775474.495 10 0 60602 2700.00000 0 -1006928.659 -16859416.108 -19114701.621 10 0 60602 3600.00000 0 -179725.552 -18943280.621 -17082650.078 10 0 60602 4500.00000 0 389107.179 -20832007.786 -14718825.107 10 0 60602 5400.00000 0 720624.860 -22464457.281 -12069165.507 10 0 60602 6300.00000 0 847029.392 -23786875.887 -9185150.169 10 0 60602 7200.00000 0 810066.515 -24755069.592 -6122797.385 10 0 60602 8100.00000 0 659018.527 -25336193.315 -2941576.335 10 0 60602 9000.00000 0 448378.079 -25510083.589 296748.058 10 0 60602 9900.00000 0 235302.012 -25270078.617 3529314.308 10 0 60602 10800.00000 0 76953.456 -24623291.662 6693384.111 10 0 60602 11700.00000 0 27844.987 -23590326.520 9727558.862 10 0 60602 12600.00000 0 137295.529 -22204447.307 12572969.162 10 0 60602 13500.00000 0 447108.756 -20510237.470 15174414.271 10 0 60602 14400.00000 0 989571.352 -18561804.292 17481429.561 10 0 60602 15300.00000 0 1785855.958 -16420603.916 19449261.548 10 0 60602 16200.00000 0 2844896.569 -14152977.611 21039732.024 10 0 60602 17100.00000 0 4162784.426 -11827501.712 22221975.108 10 0 60602 18000.00000 0 5722710.645 -9512261.247 22973033.413 10 0 60602 18900.00000 0 7495459.098 -7272160.166 23278302.277 10 0 60602 19800.00000 0 9440430.236 -5166379.388 23131813.798 10 0 60602 20700.00000 0 11507154.404 -3246087.660 22536355.274 10 0 60602 21600.00000 0 13637232.906 -1552499.683 21503419.651 10 0 60602 22500.00000 0 15766627.160 -115361.541 20052988.566 10 0 60602 23400.00000 0 17828201.616 1048074.133 18213151.598 10 0 60602 24300.00000 0 19754415.249 1933541.192 16019568.364 10 0 60602 25200.00000 0 21480049.915 2549701.203 13514783.063 10 0 60602 26100.00000 0 22944861.809 2917535.863 10747403.996 10 0 60602 27000.00000 0 24096045.094 3069216.658 7771163.338 10 0 60602 27900.00000 0 24890404.207 3046499.857 4643874.964 10 0 60602 28800.00000 0 25296143.162 2898715.058 1426310.470 10 0 60602 29700.00000 0 25294196.130 2680432.900 -1818984.659 10 0 60602 30600.00000 0 24879042.631 2448911.293 -5028911.299 10 0 60602 31500.00000 0 24058972.459 2261429.108 -8141049.005 10 0 60602 32400.00000 0 22855788.667 2172621.168 -11094875.653 10 0 60602 33300.00000 0 21303960.747 2231928.408 -13832949.987 10 0 60602 34200.00000 0 19449263.430 2481272.147 -16302033.299 10 0 60602 35100.00000 0 17346958.278 2953051.876 -18454127.946 10 0 60602 36000.00000 0 15059594.412 3668552.113 -20247412.227 10 0 60602 36900.00000 0 12654520.731 4636826.454 -21647053.310 10 0 60602 37800.00000 0 10201213.771 5854106.626 -22625882.632 10 0 60602 38700.00000 0 7768532.917 7303762.169 -23164920.961 10 0 60602 39600.00000 0 5422017.349 8956813.079 -23253743.371 10 0 60602 40500.00000 0 3221337.059 10772974.501 -22890677.541 10 0 60602 41400.00000 0 1218003.527 12702190.296 -22082831.976 10 0 60602 42300.00000 0 -546565.439 14686591.735 -20845953.957 10 0 60602 43200.00000 0 -2042547.165 16662799.888 -19204120.234 10 0 60602 44100.00000 0 -3252720.606 18564475.813 -17189266.538 10 0 60602 45000.00000 0 -4172937.269 20325012.240 -14840565.069 10 0 60602 45900.00000 0 -4812038.470 21880254.440 -12203661.967 10 0 60602 46800.00000 0 -5191223.923 23171136.666 -9329789.460 10 0 60602 47700.00000 0 -5342899.642 24146123.888 -6274769.889 10 0 60602 48600.00000 0 -5309054.996 24763356.680 -3097930.928 10 0 60602 49500.00000 0 -5139238.438 24992409.423 139046.860 10 0 60602 50400.00000 0 -4888218.289 24815588.139 3373327.612 10 0 60602 51300.00000 0 -4613428.121 24228713.607 6542139.442 10 0 60602 52200.00000 0 -4372305.270 23241356.910 9583991.633 10 0 60602 53100.00000 0 -4219635.354 21876517.594 12439865.930 10 0 60602 54000.00000 0 -4205015.304 20169757.846 15054358.885 10 0 60602 54900.00000 0 -4370542.270 18167828.832 17376753.218 10 0 60602 55800.00000 0 -4748826.131 15926846.424 19361997.730 10 0 60602 56700.00000 0 -5361409.680 13510092.152 20971577.177 10 0 60602 57600.00000 0 -6217663.391 10985530.618 22174255.798 10 0 60602 58500.00000 0 -7314201.843 8423146.204 22946680.599 10 0 60602 59400.00000 0 -8634847.076 5892209.171 23273833.185 10 0 60602 60300.00000 0 -10151141.454 3458583.998 23149321.730 10 0 60602 61200.00000 0 -11823389.703 1182191.001 22575507.558 10 0 60602 62100.00000 0 -13602187.807 -885274.166 21563463.772 10 0 60602 63000.00000 0 -15430376.103 -2702269.181 20132766.381 10 0 60602 63900.00000 0 -17245336.123 -4238902.405 18311121.384 10 0 60602 64800.00000 0 -18981536.122 -5477937.300 16133834.318 10 0 60602 65700.00000 0 -20573219.576 -6415262.655 13643131.706 10 0 60602 66600.00000 0 -21957124.483 -7059809.581 10887346.839 10 0 60602 67500.00000 0 -23075119.584 -7432919.356 7919984.994 10 0 60602 68400.00000 0 -23876646.686 -7567189.254 4798685.814 10 0 60602 69300.00000 0 -24320865.956 -7504845.594 1584102.851 10 0 60602 70200.00000 0 -24378413.288 -7295713.259 -1661277.824 10 0 60602 71100.00000 0 -24032694.978 -6994868.247 -4874356.621 10 0 60602 72000.00000 0 -23280664.322 -6660073.328 -7992652.658 10 0 60602 72900.00000 0 -22133046.692 -6349106.246 -10955524.558 10 0 60602 73800.00000 0 -20614002.890 -6117094.498 -13705355.298 10 0 60602 74700.00000 0 -18760244.477 -6013970.447 -16188677.336 10 0 60602 75600.00000 0 -16619637.870 -6082155.342 -18357215.649 10 0 60602 76500.00000 0 -14249355.581 -6354570.945 -20168828.051 10 0 60602 77400.00000 0 -11713651.963 -6853063.496 -21588324.459 10 0 60602 78300.00000 0 -9081356.431 -7587307.100 -22588149.324 10 0 60602 79200.00000 0 -6423188.757 -8554233.252 -23148914.317 10 0 60602 80100.00000 0 -3809008.203 -9738010.983 -23259771.355 10 0 60602 81000.00000 0 -1305110.784 -11110578.852 -22918619.206 10 0 60602 81900.00000 0 1028313.440 -12632706.836 -22132140.117 10 0 60602 82800.00000 0 3139457.924 -14255543.920 -20915666.089 10 0 60602 83700.00000 0 4986818.289 -15922586.835 -19292877.638 10 0 60602 84600.00000 0 6540673.337 -17571987.759 -17295340.997 10 0 60602 85500.00000 0 7784068.063 -19139104.503 -14961892.722 10 0 60603 0.00000 0 8713259.036 -20559186.390 -12337883.875 10 0 60603 900.00000 0 9337605.560 -21770084.105 -9474296.852 10 0 60603 1800.00000 0 9678911.514 -22714868.027 -6426755.591 10 0 60603 2700.00000 0 9770248.681 -23344247.742 -3254443.651 10 0 60603 3600.00000 0 9654311.071 -23618689.167 -18954.708 10 0 60603 4500.00000 0 9381371.280 -23510141.099 3216903.403 10 0 60603 5400.00000 0 9006925.953 -23003298.419 6390327.493 10 0 60603 6300.00000 0 8589130.442 -22096348.769 9439736.843 10 0 60603 7200.00000 0 8186131.525 -20801171.174 12305966.284 10 0 60603 8100.00000 0 7853411.161 -19142978.024 14933411.395 10 0 60603 9000.00000 0 7641253.576 -17159415.084 17271103.765 10 0 60603 9900.00000 0 7592442.670 -14899156.759 19273695.740 10 0 60603 10800.00000 0 7740286.866 -12420054.779 20902336.011 10 0 60603 11700.00000 0 8107054.713 -9786916.811 22125419.606 10 0 60603 12600.00000 0 8702887.313 -7069006.838 22919198.260 10 0 60603 13500.00000 0 9525233.680 -4337370.371 23268239.856 10 0 60603 14400.00000 0 10558833.386 -1662094.733 23165728.346 10 0 60603 15300.00000 0 11776248.048 890382.722 22613598.504 10 0 60603 16200.00000 0 13138920.356 3259807.644 21622502.779 10 0 60603 17100.00000 0 14598717.391 5394378.696 20211610.540 10 0 60603 18000.00000 0 16099894.649 7252660.960 18408243.042 10 0 60603 18900.00000 0 17581399.460 8805063.925 16247350.434 10 0 60603 19800.00000 0 18979418.058 10034823.105 13770840.144 10 0 60603 20700.00000 0 20230059.954 10938444.910 11026768.889 10 0 60603 21600.00000 0 21272067.092 11525596.729 8068413.359 10 0 60603 22500.00000 0 22049433.819 11818447.427 4953237.117 10 0 60603 23400.00000 0 22513826.977 11850486.562 1741773.677 10 0 60603 24300.00000 0 22626703.525 11664872.696 -1503552.436 10 0 60603 25200.00000 0 22361035.600 11312381.241 -4719643.381 10 0 60603 26100.00000 0 21702569.317 10849039.288 -7843960.111 10 0 60603 27000.00000 0 20650563.287 10333548.293 -10815744.230 10 0 60603 27900.00000 0 19217974.786 9824604.527 -13577205.108 10 0 60603 28800.00000 0 17431084.951 9378231.515 -16074648.413 10 0 60603 29700.00000 0 15328578.090 9045238.084 -18259523.624 10 0 60603 30600.00000 0 12960113.219 8868910.196 -20089369.821 10 0 60603 31500.00000 0 10384447.327 8883034.607 -21528641.268 10 0 60603 32400.00000 0 7667188.599 9110338.200 -22549396.883 10 0 60603 33300.00000 0 4878273.119 9561409.094 -23131840.537 10 0 60603 34200.00000 0 2089270.060 10234145.155 -23264702.075 10 0 60603 35100.00000 0 -629372.821 11113753.247 -22945452.190 10 0 60603 36000.00000 0 -3211029.275 12173299.375 -22180347.375 10 0 60603 36900.00000 0 -5595428.578 13374786.669 -20984304.471 10 0 60603 37800.00000 0 -7730918.955 14670716.059 -19380607.471 10 0 60603 38700.00000 0 -9576367.311 16006064.210 -17400452.388 10 0 60603 39600.00000 0 -11102617.303 17320595.774 -15082339.024 10 0 60603 40500.00000 0 -12293446.355 18551412.938 -12471321.386 10 0 60603 41400.00000 0 -13145983.090 19635635.236 -9618131.198 10 0 60603 42300.00000 0 -13670569.196 20513096.964 -6578191.502 10 0 60603 43200.00000 0 -13890073.007 21128948.787 -3410539.473 10 0 60603 44100.00000 0 -13838685.033 21436053.973 -176679.459 10 0 60603 45000.00000 0 -13560247.360 21397078.312 3060611.338 10 0 60603 45900.00000 0 -13106188.363 20986185.585 6238501.144 10 0 60603 46800.00000 0 -12533150.674 20190267.027 9295322.070 10 0 60603 47700.00000 0 -11900413.101 19009652.766 12171764.925 10 0 60603 48600.00000 0 -11267215.666 17458274.998 14812027.233 10 0 60603 49500.00000 0 -10690100.807 15563275.511 17164892.328 10 0 60603 50400.00000 0 -10220382.875 13364073.427 19184718.884 10 0 60603 51300.00000 0 -9901852.491 10910931.412 20832322.136 10 0 60603 52200.00000 0 -9768812.291 8263079.314 22075730.252 10 0 60603 53100.00000 0 -9844526.637 5486472.527 22890801.734 10 0 60603 54000.00000 0 -10140150.477 2651277.296 23261692.366 10 0 60603 54900.00000 0 -10654182.572 -170813.611 23181163.036 10 0 60603 55800.00000 0 -11372466.448 -2909324.440 22650722.589 10 0 60603 56700.00000 0 -12268739.631 -5497686.375 21680602.867 10 0 60603 57600.00000 0 -13305708.892 -7875763.144 20289566.061 10 0 60603 58500.00000 0 -14436607.241 -9992108.265 18504547.550 10 0 60603 59400.00000 0 -15607168.167 -11805860.813 16360140.406 10 0 60603 60300.00000 0 -16757934.961 -13288201.445 13897930.766 10 0 60603 61200.00000 0 -17826808.640 -14423308.460 11165696.165 10 0 60603 62100.00000 0 -18751727.565 -15208774.452 8216481.741 10 0 60603 63000.00000 0 -19473365.941 -15655466.575 5107571.777 10 0 60603 63900.00000 0 -19937737.124 -15786836.779 1899376.388 10 0 60603 64800.00000 0 -20098591.353 -15637711.590 -1345744.909 10 0 60603 65700.00000 0 -19919505.855 -15252613.043 -4564699.513 10 0 60603 66600.00000 0 -19375578.119 -14683682.345 -7694893.680 10 0 60603 67500.00000 0 -18454649.762 -13988294.714 -10675455.401 10 0 60603 68400.00000 0 -17158008.305 -13226467.033 -13448423.711 10 0 60603 69300.00000 0 -15500536.213 -12458168.693 -15959880.550 10 0 60603 70200.00000 0 -13510300.049 -11740650.014 -18161002.658 10 0 60603 71100.00000 0 -11227596.163 -11125901.729 -20009012.718 10 0 60603 72000.00000 0 -8703492.322 -10658353.259 -21468011.157 10 0 60603 72900.00000 0 -5997925.780 -10372907.162 -22509672.577 10 0 60603 73800.00000 0 -3177436.758 -10293392.707 -23113793.593 10 0 60603 74700.00000 0 -312631.487 -10431503.688 -23268681.874 10 0 60603 75600.00000 0 2524519.972 -10786264.998 -22971379.295 10 0 60603 76500.00000 0 5263439.238 -11344050.225 -22227715.309 10 0 60603 77400.00000 0 7837634.432 -12079149.256 -21052189.842 10 0 60603 78300.00000 0 10187222.998 -12954861.841 -19467688.242 10 0 60603 79200.00000 0 12261178.531 -13925070.942 -17505033.873 10 0 60603 80100.00000 0 14019209.039 -14936229.569 -15202387.102 10 0 60603 81000.00000 0 15433189.565 -15929677.421 -12604502.257 10 0 60603 81900.00000 0 16488090.665 -16844189.748 -9761856.887 10 0 60603 82800.00000 0 17182365.232 -17618651.022 -6729670.218 10 0 60603 83700.00000 0 17527778.887 -18194740.697 -3566829.850 10 0 60603 84600.00000 0 17548692.362 -18519517.720 -334747.624 10 0 60603 85500.00000 0 17280827.313 -18547794.709 2903832.969 99